Starlink 3885

operational
NORAD ID: 52463 Int'l Des: 2022-049 Owner: SPXS Country: US Constellation: starlink
LEOCIRCULAR

About Starlink 3885

Description loading...

Live Position

Loading 3D Globe...

Upcoming Passes

Altitude History

Altitude vs Time

uPlot chart will show altitude changes over time

Two-Line Element Set

1 52463U 22049N 25351.39943939 -.00000739 00000-0 -28330-4 0 9993
2 52463 53.2172 58.5377 0001445 90.9054 269.2104 15.08840427199965
Epoch: Dec 17, 2025 • Age: 11 hours

Current Status

Altitude 543.3 km
Velocity 7.59 km/s
Sub-Earth Point -12.30°S, 10.71°E
Launch Date May 6, 2022
Age 3.6 years
Type internet

Technical Details

Classification Payload
Mass 297.00 kg
Dry Mass 220.00 kg
Total Mass 297.00 kg
Length 0.20 m
Diameter 2.80 m
Span 9.00 m
Shape Box + pan
Manufacturer SPXS
Bus Type Starlink
Phase Status In Orbit
Owner/State SPXS/US

Large Constellations

Loading constellations...